Flag for Estonia Weather past 2 weeks in Tartu, Estonia

Now
32 °F

Light snow. Overcast.


Feels Like: 22 °F
Forecast: 28 / 33 °F
Wind: 14 mph from South

Location: Tartu/Ulenurme

Current Time: Jan 29, 2015 at 8:43:10 PM

Latest Report: Jan 29, 2015 at 7:50 PM


Visibility: N/A

Pressure: 29.21 "Hg

Humidity: 80%

Dew point: 27 °F

Location of TartuLocation

Historic Weather in Tartu — Graph

°F

Tartu temperature yesterday

Maximum temperature yesterday: 30 °F (at 12:50 PM)
Minimum temperature yesterday: 27 °F (at 12:50 AM)
Average temperature yesterday: 29 °F

Past Weeks' High & Low Weather Summary

 TemperatureHumidityPressure
High39 °F (Jan 16, 10:50 PM)93% (Jan 14, 7:50 PM)30.36 "Hg (Jan 14, 7:50 PM)
Low21 °F (Jan 21, 9:50 PM)64% (Jan 24, 1:50 PM)29.21 "Hg (Jan 29, 12:50 PM)
Average30 °F85%29.94 "Hg
* Reported Jan 14 6:50 PM — Jan 29 6:50 PM, Tartu, Weather by CustomWeather, © 2014

Note: Actual official high and low records may vary slightly from our data, if they occured in-between our weather recording intervals... More about our weather records

Advertising

Tartu weather history for previous 24 hours

 ConditionsComfort  
Time TempWeatherWind HumidityBarometerVisibility
6:50 PM
Jan 29
32 °FOvercast.13 mph80%29.21 "HgN/A
5:50 PM32 °FLight snow. Overcast.14 mph80%29.21 "HgN/A
4:50 PM32 °FLight snow. Overcast.14 mph80%29.21 "HgN/A
3:50 PM32 °FLight snow. Overcast.16 mph75%29.21 "HgN/A
2:50 PM32 °FOvercast.15 mph75%29.21 "HgN/A
1:50 PM32 °FOvercast.20 mph75%29.21 "HgN/A
12:50 PM32 °FMore clouds than sun.18 mph69%29.21 "HgN/A
11:50 AM32 °FOvercast.16 mph69%29.24 "HgN/A
10:50 AM32 °FOvercast.17 mph69%29.24 "HgN/A
9:50 AM32 °FOvercast.17 mph69%29.24 "HgN/A
8:50 AM30 °FOvercast.13 mph80%29.27 "HgN/A
7:50 AM30 °FMostly cloudy.14 mph80%29.27 "HgN/A
6:50 AM30 °FOvercast.13 mph80%29.30 "HgN/A
5:50 AM30 °FOvercast.12 mph80%29.33 "HgN/A
4:50 AM30 °FOvercast.13 mph80%29.33 "HgN/A
3:50 AM30 °FPassing clouds.10 mph80%29.36 "HgN/A
2:50 AM30 °FMostly cloudy.10 mph86%29.39 "HgN/A
1:50 AM30 °FIce fog.12 mph86%29.42 "Hg4 mi
12:50 AM30 °FLow clouds.13 mph80%29.42 "HgN/A
11:50 PM
Jan 28
28 °FOvercast.10 mph86%29.45 "HgN/A
10:50 PM30 °FMostly cloudy.10 mph80%29.45 "HgN/A
9:50 PM30 °FOvercast.13 mph80%29.47 "HgN/A
8:50 PM30 °FOvercast.12 mph80%29.50 "HgN/A
Weather by CustomWeather, © 2014

See weather overviewHow to use our weather pages